Lafayette, CO

4:14 AM MST on February 21, 2017 (GMT -0700)
Erie Municipal Airport

Weather History for KEIK - February, 2013

Change the Weather History Date:

Tuesday, February 26, 2013

  Actual Average (KBJC) Record (KBJC)
Temperature  
Mean Temperature 20 °F -  
Max Temperature 33 °F 42 °F 68 °F (1986)
Min Temperature 8 °F 23 °F 3 °F (2002)
Degree Days  
Heating Degree Days 44    
Moisture  
Dew Point 18 °F    
Average Humidity 78    
Maximum Humidity 95    
Minimum Humidity 52    
Precipitation  
Precipitation 0.00 in - - ()
Sea Level Pressure  
Sea Level Pressure 29.88 in    
Wind  
Wind Speed 5 mph (NNE)    
Max Wind Speed 25 mph    
Max Gust Speed 36 mph    
Visibility 8 miles    
Events Snow    
Averages and records for this station are not official NWS values.
T = Trace of Precipitation, MM = Missing Value Source: NWS Daily Summary

Daily Weather History Graph

Daily Weather History Graph

Search for Another Location

Airport or City:

Trip Planner

Search our weather history database for the weather conditions in past years. The results will help you decide how hot, cold, wet, or windy it might be!

Date:

Astronomy

Feb. 26, 2013 Rise Set
Actual Time 6:37 AM MST 5:49 PM MST
Civil Twilight 6:10 AM MST 6:16 PM MST
Nautical Twilight 5:38 AM MST 6:47 PM MST
Astronomical Twilight 5:07 AM MST 7:19 PM MST
Moon 7:08 PM MST (2/26) 6:41 AM MST (2/26)
Length of Visible Light 12h 06m
Length of Day
11h 11m
Full, 99% of the Moon is Illuminated
Feb 26
Full
Mar 4
Last Quarter
Mar 11
New
Mar 19
First Quarter
Mar 27
Full

Hourly Weather History & Observations

Time (MST) Temp. Windchill Dew Point Humidity Pressure Visibility Wind Dir Wind Speed Gust Speed Precip Events Conditions
12:11 AM 8.1 °F - 6.3 °F 92% 29.80 in 10.0 mi Calm Calm - N/A   Clear
12:30 AM 8.2 °F - 6.4 °F 92% 29.79 in 10.0 mi Calm Calm - N/A   Clear
12:50 AM 9.9 °F - 8.1 °F 92% 29.80 in 10.0 mi Calm Calm - N/A   Clear
1:10 AM 11.3 °F - 9.7 °F 93% 29.79 in 10.0 mi Calm Calm - N/A   Clear
1:30 AM 11.3 °F - 9.5 °F 92% 29.78 in 10.0 mi Calm Calm - N/A   Clear
1:51 AM 11.1 °F - 9.3 °F 92% 29.78 in 10.0 mi Calm Calm - N/A   Clear
2:11 AM 11.8 °F - 10.6 °F 95% 29.78 in 10.0 mi Calm Calm - N/A   Clear
2:31 AM 12.4 °F - 10.8 °F 93% 29.77 in 10.0 mi Calm Calm - N/A   Clear
2:51 AM 12.9 °F 6.9 °F 11.3 °F 93% 29.78 in 10.0 mi SSW 3.5 mph - N/A   Clear
3:11 AM 13.3 °F 4.2 °F 11.5 °F 93% 29.78 in 10.0 mi SW 5.8 mph - N/A   Clear
3:31 AM 13.5 °F - 11.7 °F 93% 29.77 in 10.0 mi Calm Calm - N/A   Clear
3:51 AM 15.6 °F - 13.6 °F 92% 29.77 in 10.0 mi Calm Calm - N/A   Scattered Clouds
4:12 AM 16.5 °F - 14.2 °F 90% 29.77 in 10.0 mi Calm Calm - N/A   Overcast
4:31 AM 15.8 °F - 14.0 °F 93% 29.77 in 10.0 mi Calm Calm - N/A   Overcast
4:52 AM 18.0 °F - 15.8 °F 91% 29.78 in 10.0 mi Calm Calm - N/A   Overcast
5:11 AM 19.0 °F - 16.7 °F 91% 29.78 in 10.0 mi Calm Calm - N/A   Overcast
5:32 AM 20.1 °F - 17.6 °F 90% 29.79 in 10.0 mi Calm Calm - N/A   Overcast
5:52 AM 20.3 °F - 18.0 °F 91% 29.79 in 10.0 mi Calm Calm - N/A   Overcast
6:12 AM 21.0 °F - 18.5 °F 90% 29.80 in 10.0 mi Calm Calm - N/A   Overcast
6:31 AM 21.2 °F - 19.0 °F 91% 29.80 in 7.0 mi Calm Calm - N/A   Overcast
6:51 AM 22.6 °F - 19.8 °F 89% 29.80 in 10.0 mi Calm Calm - N/A   Overcast
7:11 AM 23.0 °F - 19.6 °F 87% 29.80 in 10.0 mi Calm Calm - N/A   Overcast
7:31 AM 23.0 °F 18.4 °F 19.4 °F 86% 29.81 in 10.0 mi NNE 3.5 mph - N/A   Overcast
7:52 AM 23.4 °F 14.3 °F 19.2 °F 84% 29.82 in 10.0 mi North 8.1 mph - N/A   Overcast
8:11 AM 22.1 °F 13.7 °F 19.0 °F 88% 29.83 in 7.0 mi NNE 6.9 mph - N/A   Overcast
8:31 AM 21.7 °F 17.0 °F 19.8 °F 92% 29.84 in 5.0 mi NNE 3.5 mph - N/A   Overcast
8:51 AM 21.7 °F - 19.8 °F 92% 29.84 in 2.0 mi Calm Calm - N/A Snow Light Snow
9:11 AM 22.1 °F - 20.3 °F 93% 29.84 in 0.8 mi Calm Calm - N/A Snow Light Snow
9:32 AM 23.0 °F - 21.4 °F 94% 29.84 in 0.5 mi Calm Calm - N/A Snow Snow
9:52 AM 23.9 °F - 22.1 °F 93% 29.84 in 0.8 mi Calm Calm - N/A Snow Light Snow
10:12 AM 24.6 °F - 22.8 °F 93% 29.84 in 0.8 mi Calm Calm - N/A Snow Light Snow
10:31 AM 26.2 °F - 23.9 °F 91% 29.84 in 1.0 mi Calm Calm - N/A Snow Light Snow
10:51 AM 26.2 °F - 23.9 °F 91% 29.84 in 0.8 mi Calm Calm - N/A Snow Light Snow
11:12 AM 27.3 °F 23.4 °F 24.8 °F 90% 29.84 in 1.5 mi SSW 3.5 mph - N/A Snow Light Snow
11:31 AM 28.0 °F 20.8 °F 25.5 °F 90% 29.83 in 3.0 mi SSW 6.9 mph - N/A   Overcast
11:51 AM 29.8 °F 24.9 °F 26.1 °F 86% 29.83 in 7.0 mi SSW 4.6 mph - N/A   Scattered Clouds
12:10 PM 30.9 °F 27.5 °F 26.4 °F 83% 29.83 in 10.0 mi South 3.5 mph - N/A   Scattered Clouds
12:31 PM 31.8 °F 28.5 °F 26.2 °F 80% 29.83 in 10.0 mi SSE 3.5 mph - N/A   Scattered Clouds
12:51 PM 32.7 °F 29.6 °F 26.2 °F 77% 29.83 in 10.0 mi SSE 3.5 mph - N/A   Scattered Clouds
1:11 PM 33.1 °F 28.7 °F 26.2 °F 76% 29.82 in 10.0 mi South 4.6 mph - N/A   Mostly Cloudy
1:31 PM 32.7 °F - 25.5 °F 75% 29.83 in 10.0 mi Calm Calm - N/A   Mostly Cloudy
1:50 PM 32.7 °F 28.3 °F 23.7 °F 69% 29.84 in 7.0 mi ENE 4.6 mph - N/A   Overcast
2:11 PM 32.0 °F 26.4 °F 26.2 °F 79% 29.85 in 4.0 mi NE 5.8 mph - N/A   Haze
2:31 PM 31.1 °F 22.4 °F 27.1 °F 85% 29.86 in 2.0 mi North 10.4 mph - N/A Snow Light Snow
2:51 PM 32.4 °F 19.1 °F 22.5 °F 67% 29.85 in 10.0 mi NNE 25.3 mph 33.4 mph N/A   Overcast
3:10 PM 32.4 °F 19.1 °F 21.9 °F 65% 29.87 in 10.0 mi North 25.3 mph 33.4 mph N/A   Overcast
3:32 PM 33.1 °F 20.6 °F 19.4 °F 57% 29.88 in 10.0 mi North 23.0 mph 35.7 mph N/A   Overcast
3:52 PM 32.2 °F 20.7 °F 21.4 °F 64% 29.89 in 10.0 mi North 18.4 mph 25.3 mph N/A   Overcast
4:11 PM 32.0 °F 20.5 °F 22.5 °F 68% 29.90 in 10.0 mi North 18.4 mph 25.3 mph N/A   Overcast
4:31 PM 32.0 °F 20.1 °F 22.1 °F 67% 29.91 in 10.0 mi North 19.6 mph 27.6 mph N/A   Overcast
4:49 PM 31.6 °F 20.0 °F 22.1 °F 68% 29.92 in 10.0 mi North 18.4 mph 26.5 mph N/A   Overcast
5:11 PM 31.5 °F 19.1 °F 21.6 °F 67% 29.92 in 10.0 mi North 20.7 mph 25.3 mph N/A   Overcast
5:31 PM 31.5 °F 19.1 °F 20.7 °F 64% 29.94 in 10.0 mi North 20.7 mph 26.5 mph N/A   Overcast
5:50 PM 30.9 °F 18.4 °F 20.8 °F 66% 29.95 in 10.0 mi NNE 20.7 mph 26.5 mph N/A   Overcast
6:11 PM 30.0 °F 18.3 °F 22.1 °F 72% 29.97 in 10.0 mi North 17.3 mph 20.7 mph N/A   Overcast
6:32 PM 31.1 °F 19.3 °F 19.2 °F 61% 29.98 in 10.0 mi North 18.4 mph - N/A   Overcast
6:51 PM 30.9 °F 19.4 °F 19.0 °F 61% 29.99 in 10.0 mi NNE 17.3 mph - N/A   Overcast
7:11 PM 30.9 °F 18.1 °F 18.5 °F 60% 30.00 in 10.0 mi North 21.9 mph 28.8 mph N/A   Overcast
7:32 PM 30.9 °F 18.4 °F 17.6 °F 58% 30.01 in 10.0 mi North 20.7 mph 35.7 mph N/A   Overcast
7:50 PM 31.1 °F 18.0 °F 18.0 °F 58% 30.02 in 10.0 mi NNE 23.0 mph 29.9 mph N/A   Overcast
8:10 PM 31.1 °F 18.3 °F 17.4 °F 57% 30.03 in 10.0 mi North 21.9 mph 29.9 mph N/A   Overcast
8:31 PM 31.1 °F 18.6 °F 17.1 °F 56% 30.05 in 10.0 mi North 20.7 mph 25.3 mph N/A   Overcast
8:52 PM 31.1 °F 20.1 °F 16.5 °F 55% 30.06 in 10.0 mi North 16.1 mph 20.7 mph N/A   Overcast
9:10 PM 31.1 °F 20.5 °F 16.2 °F 54% 30.06 in 10.0 mi North 15.0 mph 24.2 mph N/A   Overcast
9:50 PM 30.4 °F 17.7 °F 16.5 °F 56% 30.07 in 10.0 mi North 20.7 mph 27.6 mph N/A   Overcast
10:11 PM 30.2 °F 17.8 °F 15.3 °F 54% 30.08 in 10.0 mi NNE 19.6 mph 28.8 mph N/A   Overcast
10:32 PM 30.0 °F 18.7 °F 14.4 °F 52% 30.08 in 10.0 mi NNE 16.1 mph 25.3 mph N/A   Overcast
10:51 PM 29.3 °F 17.7 °F 14.5 °F 54% 30.09 in 10.0 mi North 16.1 mph 24.2 mph N/A   Mostly Cloudy
11:11 PM 28.9 °F 17.7 °F 14.7 °F 55% 30.09 in 10.0 mi North 15.0 mph - N/A   Overcast
11:31 PM 27.7 °F 18.2 °F 14.9 °F 59% 30.11 in 10.0 mi NNE 10.4 mph - N/A   Mostly Cloudy
11:52 PM 27.0 °F 17.3 °F 14.2 °F 59% 30.11 in 10.0 mi NNE 10.4 mph - N/A   Scattered Clouds